sat.trackr.live / text

‹ back to catalog

STARLINK-35788

NORAD 66831 · 2025-280L

PAYLOAD ACTIVE UNKNOWN

§ Identity

Operator
Country
US
Launch date
2025-12-02
Launch site
AFWTR
Launch vehicle
Mass (kg)
RCS (m²)

Purposes: comms

External: N2YO · Heavens-Above · Gunter

§ Orbital elements

Epoch: 2026-05-25T03:48:35.858304Z

Period
96.11 min
Inclination
70.0008°
Eccentricity
0.0004169
Mean motion
14.98335343 rev/d
Perigee alt
569.1 km
Apogee alt
574.9 km
Semi-major
6,950.2 km
B*
1.9991e-4
RAAN
141.5148°
Arg perigee
263.4267°
Mean anomaly
96.6417°
Rev number
2,753

§ Raw data

STARLINK-357881 66831U 25280L   26145.15874836  .00002293  00000+0  19991-3 0  99982 66831  70.0008 141.5148 0004169 263.4267  96.6417 14.98335343 27538

JSON: /api/v1/satellites/66831 · /tle

For live sub-satellite position, see the globe view (requires WebGL).

§ Visibility from observer

Set your observer location to see the next 7 days of passes ≥ 10°. The values pass through the URL so the page stays shareable.

No JS? Fill the form by hand. The geolocation button needs JavaScript.